Flag Weather past 2 weeks in Beersheba, Israel

Now
64 °F

Passing clouds.


Feels Like: 64 °F
Forecast: 63 / 75 °F
Wind: 6 mph from South

Location: Ben Gurion International Airport

Current Time: Nov 1, 2014 at 1:41:40 AM

Latest Report: Nov 1, 2014 at 1:20 AM


Visibility: N/A

Pressure: 29.98 "Hg

Humidity: 83%

Dew point: 59 °F

Location of BeershebaLocation

Historic Weather in Beersheba — Graph

°F

Beersheba temperature yesterday

Maximum temperature yesterday: 75 °F (at 2:20 PM)
Minimum temperature yesterday: 63 °F (at 5:50 AM)
Average temperature yesterday: 67 °F

Past Weeks' High & Low Weather Summary

 TemperatureHumidityPressure
High88 °F (Oct 25, 12:20 PM)94% (Oct 31, 5:50 AM)30.12 "Hg (Oct 31, 5:50 AM)
Low59 °F (Oct 22, 4:50 AM)24% (Oct 25, 12:50 PM)29.74 "Hg (Oct 19, 1:50 PM)
Average72 °F64%29.98 "Hg
* Reported Oct 17 1:20 AM — Nov 1 12:20 AM, Beersheba, Weather by CustomWeather, © 2014

Note: Actual official high and low records may vary slightly from our data, if they occured in-between our weather recording intervals... More about our weather records

Advertising

Beersheba weather history for previous 24 hours

 ConditionsComfort  
Time TempWeatherWind HumidityBarometerVisibility
12:20 AM
Nov 1
64 °FPassing clouds.8 mph88%29.95 "HgN/A
11:50 PM
Oct 31
64 °FPassing clouds.9 mph88%29.95 "HgN/A
11:20 PM64 °FPassing clouds.9 mph88%29.98 "HgN/A
10:50 PM64 °FLight rain. Passing clouds.6 mph83%29.98 "HgN/A
10:20 PM64 °FPassing clouds.9 mph83%29.98 "HgN/A
9:50 PM64 °FPassing clouds.6 mph83%29.98 "HgN/A
9:20 PM64 °FPassing clouds.7 mph83%29.98 "HgN/A
8:50 PM64 °FPassing clouds.8 mph83%29.98 "HgN/A
8:20 PM66 °FPassing clouds.7 mph78%29.98 "HgN/A
7:50 PM68 °FPassing clouds.2 mph73%29.98 "HgN/A
7:20 PM68 °FPassing clouds.5 mph73%29.98 "HgN/A
6:50 PM66 °FPassing clouds.5 mph78%29.98 "HgN/A
6:20 PM66 °FPassing clouds.3 mph78%29.95 "HgN/A
5:50 PM68 °FPassing clouds.14 mph64%29.95 "HgN/A
5:20 PM72 °FPassing clouds.13 mph57%29.92 "HgN/A
4:50 PM72 °FScattered clouds.10 mph61%29.92 "HgN/A
4:20 PM72 °FScattered clouds.13 mph65%29.92 "HgN/A
3:50 PM73 °FScattered clouds.15 mph57%29.92 "HgN/A
3:20 PM73 °FScattered clouds.15 mph61%29.92 "HgN/A
2:50 PM73 °FScattered clouds.16 mph65%29.92 "HgN/A
2:20 PM75 °FScattered clouds.15 mph61%29.92 "HgN/A
1:50 PM70 °FPartly sunny.7 mph78%29.92 "HgN/A
1:20 PM70 °FPartly sunny.10 mph78%29.92 "HgN/A
12:50 PM68 °FPartly sunny.7 mph83%29.92 "HgN/A
12:20 PM66 °FLight rain. Partly sunny.5 mph83%29.92 "HgN/A
11:50 AM66 °FRain showers. Broken clouds.5 mph78%29.92 "Hg4 mi
11:20 AM72 °FScattered clouds.12 mph78%29.92 "HgN/A
10:50 AM72 °FScattered clouds.10 mph73%29.92 "HgN/A
10:20 AM68 °FScattered clouds.9 mph83%29.92 "HgN/A
9:50 AM68 °FScattered clouds.12 mph78%29.95 "HgN/A
9:20 AM70 °FScattered clouds.8 mph78%29.95 "HgN/A
8:50 AM66 °FScattered clouds.8 mph88%29.95 "HgN/A
8:20 AM66 °FScattered clouds.8 mph83%29.95 "HgN/A
7:50 AM68 °FScattered clouds.9 mph83%29.92 "HgN/A
7:20 AM66 °FScattered clouds.8 mph88%29.92 "HgN/A
6:50 AM64 °FScattered clouds.7 mph88%29.92 "HgN/A
6:20 AM63 °FScattered clouds.8 mph94%29.92 "HgN/A
5:50 AM63 °FLight rain. Passing clouds.8 mph94%29.92 "HgN/A
5:20 AM64 °FPassing clouds.8 mph83%29.92 "HgN/A
4:50 AM64 °FPassing clouds.5 mph83%29.92 "HgN/A
4:20 AM64 °FRain. Passing clouds.6 mph83%29.95 "Hg5 mi
3:50 AM64 °FLight rain. Passing clouds.2 mph83%29.92 "HgN/A
3:20 AM64 °FPassing clouds.2 mph83%29.92 "HgN/A
2:50 AM64 °FPassing clouds.5 mph83%29.92 "HgN/A
2:20 AM64 °FPassing clouds.8 mph83%29.92 "HgN/A
1:50 AM64 °FPassing clouds.7 mph83%29.92 "HgN/A
1:20 AM64 °FPassing clouds.9 mph83%29.92 "HgN/A
Weather by CustomWeather, © 2014

See weather overviewHow to use our weather pages